Reflectivity
-20 -5 2 4 -1 6 6 8 7 10 11 11 10 22 17 26 30 28 22 26 12 9
-5 -4 -8 0 0 6 2 5 4 8 6 7 18 16 12 27 34 35 34 29 15 8
-17 -20 -20 -20 -19 -14 -3 -1 1 1 12 7 13 24 16 26 33 29 28 32 13 2
-20 -20 -20 -20 -20 -4 -1 2 0 2 6 14 7 15 11 17 23 21 25 21 14 9
4 -3 -20 -20 -20 -3 -2 -9 4 7 2 10 11 12 9 9 17 20 18 16 6 -2
-1 2 -20 -20 -20 -20 -20 -20 0 4 10 7 12 19 17 10 9 10 12 10 9 10
7 -20 1 -20 -20 -20 -20 -20 -20 -15 2 11 14 19 17 20 20 9 9 7 6 8
-16 -20 -20 -20 -20 -20 -20 -20 -20 -20 -20 7 9 15 17 20 16 3 19 17 8 7
-20 -20 -20 -20 -20 -20 -20 -20 -20 -20 -20 4 12 -5 -19 13 18 20 7 -11 13 0
-20 -20 -20 -20 -20 -20 -20 -20 -20 -1 -1 3 12 5 -20 -20 -20 -20 -14 6 -19 -20
-20 -20 -20 -20 -20 -20 -20 -20 -16 -2 -2 -1 7 7 -11 -20 -20 -20 -20 -20 -2 -15
-20 -20 -20 -20 -20 -20 -20 -20 -20 -20 -20 -20 -20 7 -10 -20 -20 -20 -20 -20 -17 -2
-20 -20 -20 -20 -20 -20 -20 -20 -20 -20 -20 -8 -4 -5 5 -20 -20 -20 -20 -20 -20 -5
-20 -20 -20 -20 -20 -20 -20 -20 -20 -20 -20 -20 -20 -14 -17 -7 -20 -20 -20 -20 -20 -20
Wind_Speed
15 11 10 12 13 10 10 11 16 14 14 15 15 13 12 10 11 14 11 14 11 7
13 16 14 15 13 10 13 12 16 16 17 16 17 17 15 11 14 14 15 12 12 10
15 15 14 13 15 16 15 16 16 17 15 17 16 16 16 12 14 15 12 10 15 14
15 16 15 13 14 14 15 16 17 17 15 15 17 17 16 15 15 15 15 15 15 18
14 15 15 15 15 15 15 16 15 15 16 15 15 16 17 16 15 16 17 16 17 18
15 13 15 15 14 14 15 16 16 16 15 16 15 14 16 16 16 16 15 17 18 18
14 15 14 14 14 15 15 16 17 18 16 15 15 14 15 16 15 16 17 17 17 18
14 13 13 14 14 14 15 15 16 17 17 16 15 14 15 15 16 17 17 17 16 17
13 13 13 13 14 14 15 15 16 15 16 17 14 29 27 20 14 15 17 18 18 17
13 13 13 13 14 14 14 14 15 16 16 17 17 30 28 23 13 14 15 17 16 16
13 13 13 13 13 13 13 15 14 15 15 15 15 29 29 21 14 13 15 16 19 17
14 14 14 14 14 13 12 12 12 13 16 18 18 29 29 20 14 14 14 13 15 18
12 13 13 13 13 12 12 12 10 12 14 18 17 26 28 24 12 14 11 12 14 22
13 13 13 13 12 12 12 12 13 14 13 16 18 20 27 26 15 12 10 11 11 11
Wind_Direction
16 9 3 360 358 353 350 351 355 356 354 3 0 358 357 360 356 345 337 344 345 346
16 17 11 7 1 355 357 356 0 5 13 8 7 6 1 5 1 355 352 341 358 2
17 15 11 6 4 4 2 3 6 5 358 15 7 5 8 6 3 11 348 348 7 11
20 18 13 10 8 5 1 5 5 4 6 3 11 6 6 8 5 11 3 360 12 16
12 16 13 13 9 6 5 8 3 359 7 2 12 7 2 4 8 12 7 4 17 22
17 21 16 14 9 8 9 9 7 7 0 6 5 13 9 9 11 17 7 10 15 18
18 12 11 16 12 14 12 12 9 8 1 3 9 9 12 9 9 18 17 16 22 21
12 19 16 16 15 11 14 10 11 7 3 0 15 12 13 4 14 15 17 17 21 25
12 16 17 16 16 16 11 12 10 7 8 3 13 12 11 9 15 21 15 18 19 20
14 16 18 16 12 9 11 8 15 13 12 12 11 13 13 6 14 16 20 18 18 18
17 17 14 14 14 11 6 8 9 13 11 15 14 14 13 9 13 19 23 22 19 17
17 16 14 13 8 8 9 10 12 16 14 14 13 12 15 10 16 13 22 20 24 18
17 20 13 9 8 4 10 13 13 20 20 18 13 15 17 15 14 11 12 16 16 22
24 23 15 11 10 10 9 13 15 17 17 16 16 12 15 19 17 7 6 13 9 9